Weather History for Oakland, CA

Change the Weather History Date:

Friday, March 16, 2012

  Actual Average Record
Temperature  
Mean Temperature 54 °F 54 °F  
Max Temperature 58 °F 63 °F 83 °F (2004)
Min Temperature 49 °F 46 °F 37 °F (1955)
Degree Days  
Heating Degree Days 11 11  
Month to date heating degree days 201 181  
Since 1 July heating degree days 2136 2203  
Cooling Degree Days 0 0  
Month to date cooling degree days 0 0  
Year to date cooling degree days 0 0  
Growing Degree Days 4 (Base 50)    
Moisture  
Dew Point 54 °F    
Average Humidity 90    
Maximum Humidity 100    
Minimum Humidity 80    
Precipitation  
Precipitation 0.66 in 0.11 in 0.95 in (1954)
Month to date precipitation 3.19 1.78  
Year to date precipitation 6.17 9.72  
Since 1 July precipitation 9.24 17.31  
Sea Level Pressure  
Sea Level Pressure 29.90 in    
Wind  
Wind Speed 13 mph (SSW)    
Max Wind Speed 44 mph    
Max Gust Speed 30 mph    
Visibility 7 miles    
Events Rain    
T = Trace of Precipitation, MM = Missing Value Source: NWS Daily Summary

Daily Weather History Graph

Daily Weather History Graph

Search for Another Location

Airport:

Trip Planner

Search our weather history database for the weather conditions in past years. The results will help you decide how hot, cold, wet, or windy it might be!

Date:

Astronomy

Mar. 16, 2012 Rise Set
Actual Time 7:17 AM PDT 7:17 PM PDT
Civil Twilight 6:51 AM PDT 7:43 PM PDT
Nautical Twilight 6:21 AM PDT 8:14 PM PDT
Astronomical Twilight 5:50 AM PDT 8:45 PM PDT
Moon 3:34 AM PDT (3/16) 1:49 PM PDT (3/16)
Length of Visible Light 12h 52m
Length of Day
12h 00m
Waning Crescent, 32% of the Moon is Illuminated
Mar 16
Waning Crescent
Mar 22
New
Mar 30
First Quarter
Apr 6
Full
Apr 13
Last Quarter

Hourly Weather History & Observations

Time (PDT) Temp. Dew Point Humidity Pressure Visibility Wind Dir Wind Speed Gust Speed Precip Events Conditions
12:53 AM 55.0 °F 53.1 °F 93% 30.08 in 10.0 mi South 10.4 mph - N/A   Mostly Cloudy
1:53 AM 55.9 °F 52.0 °F 87% 30.06 in 10.0 mi SSW 10.4 mph - N/A   Mostly Cloudy
2:53 AM 55.9 °F 52.0 °F 87% 30.06 in 10.0 mi SSW 9.2 mph - N/A   Overcast
3:25 AM 55.4 °F 51.8 °F 88% 30.05 in 10.0 mi SSW 10.4 mph - N/A   Overcast
3:53 AM 55.9 °F 52.0 °F 87% 30.04 in 10.0 mi SSW 10.4 mph - N/A   Overcast
4:22 AM 55.4 °F 51.8 °F 88% 30.02 in 10.0 mi SSW 9.2 mph - N/A   Overcast
4:30 AM 55.4 °F 53.6 °F 94% 30.02 in 10.0 mi SSW 8.1 mph - N/A   Overcast
4:53 AM 55.9 °F 52.0 °F 87% 30.02 in 10.0 mi SW 13.8 mph - N/A   Overcast
5:53 AM 55.9 °F 53.1 °F 90% 30.01 in 10.0 mi South 11.5 mph - 0.00 in   Overcast
6:06 AM 55.4 °F 53.6 °F 94% 30.00 in 10.0 mi South 11.5 mph - N/A   Overcast
6:17 AM 55.4 °F 53.6 °F 94% 30.00 in 10.0 mi South 11.5 mph - N/A   Overcast
6:37 AM 55.4 °F 53.6 °F 94% 29.99 in 10.0 mi South 15.0 mph - N/A   Overcast
6:53 AM 55.0 °F 53.1 °F 93% 30.00 in 7.0 mi South 13.8 mph - N/A   Overcast
7:42 AM 55.4 °F 53.6 °F 94% 29.98 in 2.5 mi South 16.1 mph - 0.00 in Rain Light Rain
7:51 AM 55.4 °F 53.6 °F 94% 29.98 in 6.0 mi South 16.1 mph - 0.00 in   Overcast
7:53 AM 55.0 °F 53.1 °F 93% 29.99 in 6.0 mi South 17.3 mph - 0.00 in   Overcast
8:53 AM 55.0 °F 54.0 °F 96% 30.00 in 2.0 mi South 13.8 mph - 0.00 in Rain Light Rain
9:23 AM 55.4 °F 53.6 °F 94% 29.99 in 5.0 mi SSE 15.0 mph - 0.01 in Rain Light Rain
9:53 AM 55.4 °F 55.4 °F 100% 29.99 in 10.0 mi SSE 15.0 mph - N/A Rain Light Rain
10:00 AM 55.4 °F 55.4 °F 100% 29.99 in 10.0 mi SSE 13.8 mph - 0.00 in Rain Light Rain
10:53 AM 55.9 °F 55.9 °F 100% 29.98 in 6.0 mi South 13.8 mph - 0.01 in Rain Light Rain
11:53 AM 55.9 °F 55.9 °F 100% 29.98 in 4.0 mi South 10.4 mph - 0.02 in Rain Light Rain
12:04 PM 55.4 °F 55.4 °F 100% 29.97 in 2.5 mi SSW 15.0 mph - 0.02 in Rain Rain
12:26 PM 55.4 °F 55.4 °F 100% 29.96 in 4.0 mi SSW 13.8 mph - 0.04 in Rain Light Rain
12:53 PM 55.9 °F 55.9 °F 100% 29.96 in 4.0 mi South 13.8 mph - 0.05 in Rain Light Rain
1:00 PM 55.4 °F 55.4 °F 100% 29.96 in 2.5 mi SSW 13.8 mph - 0.02 in Rain Light Rain
1:26 PM 55.4 °F 55.4 °F 100% 29.91 in 6.0 mi SSE 19.6 mph - 0.07 in Rain Light Rain
1:38 PM 57.2 °F 57.2 °F 100% 29.87 in 10.0 mi SSE 19.6 mph - 0.07 in Rain Light Rain
1:51 PM 57.2 °F 57.2 °F 100% 29.88 in 10.0 mi SSE 16.1 mph - 0.07 in   Mostly Cloudy
1:53 PM 57.0 °F 57.0 °F 100% 29.88 in 10.0 mi SSE 15.0 mph - 0.07 in   Mostly Cloudy
2:29 PM 57.2 °F 57.2 °F 100% 29.89 in 10.0 mi SSW 15.0 mph - N/A   Overcast
2:53 PM 57.9 °F 57.0 °F 97% 29.89 in 10.0 mi SW 16.1 mph - N/A   Overcast
3:53 PM 57.0 °F 54.0 °F 89% 29.87 in 5.0 mi SSW 16.1 mph - 0.00 in Rain Light Rain
4:07 PM 57.2 °F 53.6 °F 88% 29.87 in 1.5 mi SSW 16.1 mph - 0.01 in Rain Light Rain
4:18 PM 57.2 °F 53.6 °F 88% 29.86 in 5.0 mi SSW 15.0 mph - 0.01 in Rain Light Rain
4:21 PM 57.2 °F 53.6 °F 88% 29.86 in 5.0 mi SSW 16.1 mph - 0.01 in Rain Light Rain
4:53 PM 57.0 °F 54.0 °F 89% 29.85 in 9.0 mi South 23.0 mph - 0.02 in Rain Light Rain
5:05 PM 57.2 °F 53.6 °F 88% 29.83 in 9.0 mi South 19.6 mph - 0.01 in Rain Light Rain
5:27 PM 57.2 °F 53.6 °F 88% 29.82 in 10.0 mi SW 16.1 mph 20.7 mph 0.01 in Rain Light Rain
5:36 PM 57.2 °F 53.6 °F 88% 29.82 in 10.0 mi South 23.0 mph - 0.01 in Rain Light Rain
5:44 PM 57.2 °F 53.6 °F 88% 29.81 in 5.0 mi South 18.4 mph - 0.02 in Rain Light Rain
5:53 PM 55.9 °F 54.0 °F 93% 29.81 in 5.0 mi SSW 18.4 mph - 0.04 in Rain Light Rain
6:00 PM 55.4 °F 53.6 °F 94% 29.81 in 1.5 mi SSW 18.4 mph - 0.01 in Rain Light Rain
6:39 PM 55.4 °F 53.6 °F 94% 29.79 in 5.0 mi South 16.1 mph - 0.13 in Rain Light Rain
6:53 PM 55.0 °F 53.1 °F 93% 29.78 in 9.0 mi South 9.2 mph - 0.13 in Rain Light Rain
7:12 PM 55.4 °F 53.6 °F 94% 29.77 in 1.5 mi South 13.8 mph - 0.01 in Rain Light Rain
7:27 PM 55.4 °F 53.6 °F 94% 29.76 in 7.0 mi South 11.5 mph - 0.05 in Rain Light Rain
7:34 PM 55.4 °F 53.6 °F 94% 29.75 in 1.5 mi South 9.2 mph - 0.06 in Rain Light Rain
7:48 PM 55.4 °F 53.6 °F 94% 29.77 in 5.0 mi West 19.6 mph 23.0 mph 0.12 in Rain Rain
7:53 PM 54.0 °F 53.1 °F 97% 29.78 in 5.0 mi West 21.9 mph 25.3 mph 0.13 in Rain Rain
7:59 PM 53.6 °F 53.6 °F 100% 29.78 in 5.0 mi West 20.7 mph - 0.00 in Rain Light Rain
8:03 PM 53.6 °F 53.6 °F 100% 29.78 in 2.0 mi West 21.9 mph - 0.01 in Rain Light Rain
8:13 PM 53.6 °F 53.6 °F 100% 29.77 in 7.0 mi West 21.9 mph 29.9 mph 0.02 in Rain Light Rain
8:53 PM 52.0 °F 50.0 °F 93% 29.78 in 7.0 mi WNW 16.1 mph 24.2 mph 0.12 in Rain Rain
9:53 PM 50.0 °F 48.0 °F 93% 29.78 in 10.0 mi Variable 4.6 mph - 0.06 in Rain Light Rain
10:53 PM 51.1 °F 44.1 °F 77% 29.77 in 10.0 mi West 11.5 mph - 0.00 in   Overcast
11:53 PM 50.0 °F 44.6 °F 82% 29.77 in 10.0 mi West 6.9 mph - N/A   Mostly Cloudy